Location: Las Navas
(40.6024°N, 4.3345°W)
Time: 00:55:15
(UTC+00:00)

Cosmos 407 Rocket - Pass Details

Date: 03 April 2020
Orbit: 743 x 787 km, 74.1° (Epoch: 26 May)

Event Time Altitude Azimuth Distance (km) Brightness Sun altitude
Exits shadow 21:09:44 21° 211° (SSW) 1,639 5.1 -26.3°
Maximum altitude 21:13:10 68° 290° (WNW) 807 3.7 -26.9°
Drops below altitude 10° 21:18:17 10° 14° (NNE) 2,267 6.2 -27.6°
Sets 21:20:40 0° 17° (NNE) 3,193 7.0 -28.0°
